Time,TemperatureF,DewpointF,PressureIn,WindDirection,WindDirectionDegrees,WindSpeedMPH,WindSpeedGustMPH,Humidity,HourlyPrecipIn,Conditions,Clouds,dailyrainin,SoftwareType,DateUTC
2013-03-05 00:04:00,49.5,21.6,29.53,North,-999,0.0,0.0,33,0.00,,,0.00,LWC V1.12 B30,2013-03-05 07:04:00,
2013-03-05 00:09:00,49.4,22.2,29.53,North,-999,0.0,0.0,34,0.00,,,0.00,LWC V1.12 B30,2013-03-05 07:09:00,
2013-03-05 00:14:00,49.2,21.3,29.53,North,-999,0.0,0.0,33,0.00,,,0.00,LWC V1.12 B30,2013-03-05 07:14:00,
2013-03-05 00:19:00,49.0,21.2,29.53,North,-999,0.0,0.0,33,0.00,,,0.00,LWC V1.12 B30,2013-03-05 07:19:00,
2013-03-05 00:24:00,48.8,21.0,29.53,North,-999,0.0,0.0,33,0.00,,,0.00,LWC V1.12 B30,2013-03-05 07:24:00,
2013-03-05 00:29:00,48.5,20.7,29.53,North,-999,0.0,0.0,33,0.00,,,0.00,LWC V1.12 B30,2013-03-05 07:29:00,
2013-03-05 00:34:00,48.2,21.2,29.53,North,-999,0.0,0.0,34,0.00,,,0.00,LWC V1.12 B30,2013-03-05 07:34:00,
2013-03-05 00:39:00,48.0,21.0,29.53,North,-999,0.0,0.0,34,0.00,,,0.00,LWC V1.12 B30,2013-03-05 07:39:00,
2013-03-05 00:44:00,48.1,21.1,29.53,North,-999,0.0,0.0,34,0.00,,,0.00,LWC V1.12 B30,2013-03-05 07:44:00,
2013-03-05 00:49:00,47.9,20.9,29.53,North,-999,0.0,0.0,34,0.00,,,0.00,LWC V1.12 B30,2013-03-05 07:49:00,
2013-03-05 00:54:00,47.8,20.8,29.53,North,-999,0.0,0.0,34,0.00,,,0.00,LWC V1.12 B30,2013-03-05 07:54:00,
2013-03-05 00:59:00,47.8,21.5,29.53,North,-999,0.0,0.0,35,0.00,,,0.00,LWC V1.12 B30,2013-03-05 07:59:00,
2013-03-05 01:04:00,47.6,21.3,29.53,North,-999,0.0,0.0,35,0.00,,,0.00,LWC V1.12 B30,2013-03-05 08:04:00,
2013-03-05 01:09:00,47.3,21.0,29.53,North,-999,0.0,0.0,35,0.00,,,0.00,LWC V1.12 B30,2013-03-05 08:09:00,
2013-03-05 01:14:00,47.1,21.5,29.53,North,-999,0.0,0.0,36,0.00,,,0.00,LWC V1.12 B30,2013-03-05 08:14:00,
2013-03-05 01:19:00,47.1,21.5,29.53,North,-999,0.0,0.0,36,0.00,,,0.00,LWC V1.12 B30,2013-03-05 08:19:00,
2013-03-05 01:24:00,47.1,21.5,29.53,North,-999,0.0,0.0,36,0.00,,,0.00,LWC V1.12 B30,2013-03-05 08:24:00,
2013-03-05 01:29:00,47.0,21.4,29.53,North,-999,0.0,0.0,36,0.00,,,0.00,LWC V1.12 B30,2013-03-05 08:29:00,
2013-03-05 01:34:00,46.9,22.0,29.53,North,-999,0.0,0.0,37,0.00,,,0.00,LWC V1.12 B30,2013-03-05 08:34:00,
2013-03-05 01:39:00,46.8,21.9,29.53,North,-999,0.0,0.0,37,0.00,,,0.00,LWC V1.12 B30,2013-03-05 08:39:00,
2013-03-05 01:44:00,46.7,21.8,29.53,North,-999,0.0,0.0,37,0.00,,,0.00,LWC V1.12 B30,2013-03-05 08:44:00,
2013-03-05 01:49:00,46.6,21.7,29.53,North,-999,0.0,0.0,37,0.00,,,0.00,LWC V1.12 B30,2013-03-05 08:49:00,
2013-03-05 01:54:00,46.1,21.3,29.53,North,-999,0.0,0.0,37,0.00,,,0.00,LWC V1.12 B30,2013-03-05 08:54:00,
2013-03-05 01:59:00,46.1,21.3,29.53,North,-999,0.0,0.0,37,0.00,,,0.00,LWC V1.12 B30,2013-03-05 08:59:00,
2013-03-05 02:04:00,45.9,21.1,29.53,North,-999,0.0,0.0,37,0.00,,,0.00,LWC V1.12 B30,2013-03-05 09:04:00,
2013-03-05 02:09:00,45.8,21.7,29.53,North,-999,0.0,0.0,38,0.00,,,0.00,LWC V1.12 B30,2013-03-05 09:09:00,
2013-03-05 02:14:00,45.5,21.4,29.53,North,-999,0.0,0.0,38,0.00,,,0.00,LWC V1.12 B30,2013-03-05 09:14:00,
2013-03-05 02:19:00,45.4,21.3,29.53,North,-999,0.0,0.0,38,0.00,,,0.00,LWC V1.12 B30,2013-03-05 09:19:00,
2013-03-05 02:24:00,45.3,21.2,29.53,North,-999,0.0,0.0,38,0.00,,,0.00,LWC V1.12 B30,2013-03-05 09:24:00,
2013-03-05 02:29:00,45.3,21.2,29.53,North,-999,0.0,0.0,38,0.00,,,0.00,LWC V1.12 B30,2013-03-05 09:29:00,
2013-03-05 02:34:00,45.2,21.1,29.53,North,-999,0.0,0.0,38,0.00,,,0.00,LWC V1.12 B30,2013-03-05 09:34:00,
2013-03-05 02:39:00,45.1,21.6,29.53,North,-999,0.0,0.0,39,0.00,,,0.00,LWC V1.12 B30,2013-03-05 09:39:00,
2013-03-05 02:44:00,44.8,21.4,29.53,North,-999,0.0,0.0,39,0.00,,,0.00,LWC V1.12 B30,2013-03-05 09:44:00,
2013-03-05 02:49:00,44.6,21.2,29.53,North,-999,0.0,0.0,39,0.00,,,0.00,LWC V1.12 B30,2013-03-05 09:49:00,
2013-03-05 02:54:00,44.4,21.0,29.53,North,-999,0.0,0.0,39,0.00,,,0.00,LWC V1.12 B30,2013-03-05 09:54:00,
2013-03-05 02:59:00,44.1,21.3,29.53,North,-999,0.0,0.0,40,0.00,,,0.00,LWC V1.12 B30,2013-03-05 09:59:00,
2013-03-05 03:04:00,44.1,20.7,29.53,North,-999,0.0,0.0,39,0.00,,,0.00,LWC V1.12 B30,2013-03-05 10:04:00,
2013-03-05 03:09:00,43.8,21.1,29.53,North,-999,0.0,0.0,40,0.00,,,0.00,LWC V1.12 B30,2013-03-05 10:09:00,
2013-03-05 03:14:00,43.6,20.9,29.53,North,-999,0.0,0.0,40,0.00,,,0.00,LWC V1.12 B30,2013-03-05 10:14:00,
2013-03-05 03:19:00,43.5,20.8,29.53,North,-999,0.0,0.0,40,0.00,,,0.00,LWC V1.12 B30,2013-03-05 10:19:00,
2013-03-05 03:24:00,43.5,20.8,29.53,North,-999,0.0,0.0,40,0.00,,,0.00,LWC V1.12 B30,2013-03-05 10:24:00,
2013-03-05 03:29:00,43.4,20.7,29.53,North,-999,0.0,0.0,40,0.00,,,0.00,LWC V1.12 B30,2013-03-05 10:29:00,
2013-03-05 03:34:00,43.4,20.1,29.53,North,-999,0.0,0.0,39,0.00,,,0.00,LWC V1.12 B30,2013-03-05 10:34:00,
2013-03-05 03:39:00,43.2,19.9,29.53,North,-999,0.0,0.0,39,0.00,,,0.00,LWC V1.12 B30,2013-03-05 10:39:00,
2013-03-05 03:44:00,43.2,19.9,29.53,North,-999,0.0,0.0,39,0.00,,,0.00,LWC V1.12 B30,2013-03-05 10:44:00,
2013-03-05 03:49:00,43.2,19.9,29.53,North,-999,0.0,0.0,39,0.00,,,0.00,LWC V1.12 B30,2013-03-05 10:49:00,
2013-03-05 03:54:00,43.1,20.4,29.53,North,-999,0.0,0.0,40,0.00,,,0.00,LWC V1.12 B30,2013-03-05 10:54:00,
2013-03-05 03:59:00,43.1,20.4,29.53,North,-999,0.0,0.0,40,0.00,,,0.00,LWC V1.12 B30,2013-03-05 10:59:00,
2013-03-05 04:04:00,43.0,20.3,29.53,North,-999,0.0,0.0,40,0.00,,,0.00,LWC V1.12 B30,2013-03-05 11:04:00,
2013-03-05 04:09:00,42.9,20.3,29.53,North,-999,0.0,0.0,40,0.00,,,0.00,LWC V1.12 B30,2013-03-05 11:09:00,
2013-03-05 04:14:00,42.8,20.2,29.53,North,-999,0.0,0.0,40,0.00,,,0.00,LWC V1.12 B30,2013-03-05 11:14:00,
2013-03-05 04:19:00,42.7,20.1,29.53,North,-999,0.0,0.0,40,0.00,,,0.00,LWC V1.12 B30,2013-03-05 11:19:00,
2013-03-05 04:24:00,42.6,20.0,29.53,North,-999,0.0,0.0,40,0.00,,,0.00,LWC V1.12 B30,2013-03-05 11:24:00,
2013-03-05 04:29:00,42.4,20.4,29.53,North,-999,0.0,0.0,41,0.00,,,0.00,LWC V1.12 B30,2013-03-05 11:29:00,
2013-03-05 04:34:00,42.3,20.3,29.53,North,-999,0.0,0.0,41,0.00,,,0.00,LWC V1.12 B30,2013-03-05 11:34:00,
2013-03-05 04:39:00,42.3,20.3,29.53,North,-999,0.0,0.0,41,0.00,,,0.00,LWC V1.12 B30,2013-03-05 11:39:00,
2013-03-05 04:44:00,42.2,20.2,29.53,North,-999,0.0,0.0,41,0.00,,,0.00,LWC V1.12 B30,2013-03-05 11:44:00,
2013-03-05 04:49:00,42.0,19.5,29.53,North,-999,0.0,0.0,40,0.00,,,0.00,LWC V1.12 B30,2013-03-05 11:49:00,
2013-03-05 04:54:00,41.9,19.9,29.53,North,-999,0.0,0.0,41,0.00,,,0.00,LWC V1.12 B30,2013-03-05 11:54:00,
2013-03-05 04:59:00,41.8,20.4,29.53,North,-999,0.0,0.0,42,0.00,,,0.00,LWC V1.12 B30,2013-03-05 11:59:00,
2013-03-05 05:04:00,41.6,20.8,29.53,North,-999,0.0,0.0,43,0.00,,,0.00,LWC V1.12 B30,2013-03-05 12:04:00,
2013-03-05 05:09:00,41.5,20.7,29.53,North,-999,0.0,0.0,43,0.00,,,0.00,LWC V1.12 B30,2013-03-05 12:09:00,
2013-03-05 05:14:00,41.4,21.1,29.53,North,-999,0.0,0.0,44,0.00,,,0.00,LWC V1.12 B30,2013-03-05 12:14:00,
2013-03-05 05:19:00,41.3,21.6,29.53,North,-999,0.0,0.0,45,0.00,,,0.00,LWC V1.12 B30,2013-03-05 12:19:00,
2013-03-05 05:24:00,41.2,21.5,29.53,North,-999,0.0,0.0,45,0.00,,,0.00,LWC V1.12 B30,2013-03-05 12:24:00,
2013-03-05 05:29:00,41.1,21.9,29.53,North,-999,0.0,0.0,46,0.00,,,0.00,LWC V1.12 B30,2013-03-05 12:29:00,
2013-03-05 05:34:00,41.0,21.8,29.53,North,-999,0.0,0.0,46,0.00,,,0.00,LWC V1.12 B30,2013-03-05 12:34:00,
2013-03-05 05:39:00,40.9,21.7,29.53,North,-999,0.0,0.0,46,0.00,,,0.00,LWC V1.12 B30,2013-03-05 12:39:00,
2013-03-05 05:44:00,40.7,21.5,29.53,North,-999,0.0,0.0,46,0.00,,,0.00,LWC V1.12 B30,2013-03-05 12:44:00,
2013-03-05 05:49:00,40.5,21.4,29.53,North,-999,0.0,0.0,46,0.00,,,0.00,LWC V1.12 B30,2013-03-05 12:49:00,
2013-03-05 05:54:00,40.5,21.9,29.53,North,-999,0.0,0.0,47,0.00,,,0.00,LWC V1.12 B30,2013-03-05 12:54:00,
2013-03-05 05:59:00,40.3,21.7,29.53,North,-999,0.0,0.0,47,0.00,,,0.00,LWC V1.12 B30,2013-03-05 12:59:00,
2013-03-05 06:04:00,40.2,21.6,29.53,North,-999,0.0,0.0,47,0.00,,,0.00,LWC V1.12 B30,2013-03-05 13:04:00,
2013-03-05 06:09:00,40.1,22.0,29.53,North,-999,0.0,0.0,48,0.00,,,0.00,LWC V1.12 B30,2013-03-05 13:09:00,
2013-03-05 06:14:00,40.0,21.9,29.53,North,-999,0.0,0.0,48,0.00,,,0.00,LWC V1.12 B30,2013-03-05 13:14:00,
2013-03-05 06:19:00,39.9,21.8,29.53,North,-999,0.0,0.0,48,0.00,,,0.00,LWC V1.12 B30,2013-03-05 13:19:00,
2013-03-05 06:24:00,39.8,21.7,29.53,North,-999,0.0,0.0,48,0.00,,,0.00,LWC V1.12 B30,2013-03-05 13:24:00,
2013-03-05 06:29:00,39.6,22.0,29.53,North,-999,0.0,0.0,49,0.00,,,0.00,LWC V1.12 B30,2013-03-05 13:29:00,
2013-03-05 06:34:00,39.6,21.5,29.53,North,-999,0.0,0.0,48,0.00,,,0.00,LWC V1.12 B30,2013-03-05 13:34:00,
2013-03-05 06:39:00,39.6,22.0,29.53,North,-999,0.0,0.0,49,0.00,,,0.00,LWC V1.12 B30,2013-03-05 13:39:00,
2013-03-05 06:44:00,39.6,22.0,29.53,North,-999,0.0,0.0,49,0.00,,,0.00,LWC V1.12 B30,2013-03-05 13:44:00,
2013-03-05 06:49:00,39.5,21.9,29.53,North,-999,0.0,0.0,49,0.00,,,0.00,LWC V1.12 B30,2013-03-05 13:49:00,
2013-03-05 06:54:00,39.5,21.5,29.53,North,-999,0.0,0.0,48,0.00,,,0.00,LWC V1.12 B30,2013-03-05 13:54:00,
2013-03-05 06:59:00,39.5,21.5,29.53,North,-999,0.0,0.0,48,0.00,,,0.00,LWC V1.12 B30,2013-03-05 13:59:00,
2013-03-05 07:05:00,39.5,21.5,29.53,North,-999,0.0,0.0,48,0.00,,,0.00,LWC V1.12 B30,2013-03-05 14:05:00,
2013-03-05 07:10:00,39.7,21.6,29.53,North,-999,0.0,0.0,48,0.00,,,0.00,LWC V1.12 B30,2013-03-05 14:10:00,
2013-03-05 07:15:00,39.8,21.7,29.53,North,-999,0.0,0.0,48,0.00,,,0.00,LWC V1.12 B30,2013-03-05 14:15:00,
2013-03-05 07:20:00,40.1,22.0,29.53,North,-999,0.0,0.0,48,0.00,,,0.00,LWC V1.12 B30,2013-03-05 14:20:00,
2013-03-05 07:25:00,40.3,21.7,29.53,North,-999,0.0,0.0,47,0.00,,,0.00,LWC V1.12 B30,2013-03-05 14:25:00,
2013-03-05 07:30:00,40.8,22.1,29.53,North,-999,0.0,0.0,47,0.00,,,0.00,LWC V1.12 B30,2013-03-05 14:30:00,
2013-03-05 07:35:00,41.3,22.1,29.53,North,-999,0.0,0.0,46,0.00,,,0.00,LWC V1.12 B30,2013-03-05 14:35:00,
2013-03-05 07:40:00,41.5,21.8,29.53,North,-999,0.0,0.0,45,0.00,,,0.00,LWC V1.12 B30,2013-03-05 14:40:00,
2013-03-05 07:45:00,42.0,22.2,29.53,North,-999,0.0,0.0,45,0.00,,,0.00,LWC V1.12 B30,2013-03-05 14:45:00,
2013-03-05 07:50:00,42.3,22.0,29.53,North,-999,0.0,0.0,44,0.00,,,0.00,LWC V1.12 B30,2013-03-05 14:50:00,
2013-03-05 07:55:00,42.6,22.2,29.53,North,-999,0.0,0.0,44,0.00,,,0.00,LWC V1.12 B30,2013-03-05 14:55:00,
2013-03-05 08:00:00,42.8,21.9,29.53,North,-999,0.0,0.0,43,0.00,,,0.00,LWC V1.12 B30,2013-03-05 15:00:00,
2013-03-05 08:05:00,43.0,21.5,29.53,North,-999,0.0,0.0,42,0.00,,,0.00,LWC V1.12 B30,2013-03-05 15:05:00,
2013-03-05 08:10:00,43.3,21.8,29.53,North,-999,0.0,0.0,42,0.00,,,0.00,LWC V1.12 B30,2013-03-05 15:10:00,
2013-03-05 08:15:00,43.5,21.9,29.53,North,-999,0.0,0.0,42,0.00,,,0.00,LWC V1.12 B30,2013-03-05 15:15:00,
2013-03-05 08:20:00,43.6,22.0,29.53,North,-999,0.0,0.0,42,0.00,,,0.00,LWC V1.12 B30,2013-03-05 15:20:00,
2013-03-05 08:25:00,43.9,21.7,29.53,North,-999,0.0,0.0,41,0.00,,,0.00,LWC V1.12 B30,2013-03-05 15:25:00,
2013-03-05 08:30:00,43.9,21.7,29.53,North,-999,0.0,0.0,41,0.00,,,0.00,LWC V1.12 B30,2013-03-05 15:30:00,
2013-03-05 08:35:00,44.1,21.9,29.53,North,-999,0.0,0.0,41,0.00,,,0.00,LWC V1.12 B30,2013-03-05 15:35:00,
2013-03-05 08:40:00,44.1,21.3,29.53,North,-999,0.0,0.0,40,0.00,,,0.00,LWC V1.12 B30,2013-03-05 15:40:00,
2013-03-05 08:45:00,44.3,21.5,29.53,North,-999,0.0,0.0,40,0.00,,,0.00,LWC V1.12 B30,2013-03-05 15:45:00,
2013-03-05 08:50:00,44.4,21.6,29.53,North,-999,0.0,0.0,40,0.00,,,0.00,LWC V1.12 B30,2013-03-05 15:50:00,
2013-03-05 08:55:00,44.7,21.9,29.53,North,-999,0.0,0.0,40,0.00,,,0.00,LWC V1.12 B30,2013-03-05 15:55:00,
2013-03-05 09:00:00,44.8,21.4,29.53,North,-999,0.0,0.0,39,0.00,,,0.00,LWC V1.12 B30,2013-03-05 16:00:00,
2013-03-05 09:05:00,44.9,21.5,29.53,North,-999,0.0,0.0,39,0.00,,,0.00,LWC V1.12 B30,2013-03-05 16:05:00,
2013-03-05 09:10:00,45.1,21.6,29.53,North,-999,0.0,0.0,39,0.00,,,0.00,LWC V1.12 B30,2013-03-05 16:10:00,
2013-03-05 09:15:00,45.3,21.2,29.53,North,-999,0.0,0.0,38,0.00,,,0.00,LWC V1.12 B30,2013-03-05 16:15:00,
2013-03-05 09:20:00,45.4,21.3,29.53,North,-999,0.0,0.0,38,0.00,,,0.00,LWC V1.12 B30,2013-03-05 16:20:00,
2013-03-05 09:25:00,45.5,22.0,29.53,North,-999,0.0,0.0,39,0.00,,,0.00,LWC V1.12 B30,2013-03-05 16:25:00,
2013-03-05 09:30:00,45.6,21.5,29.53,North,-999,0.0,0.0,38,0.00,,,0.00,LWC V1.12 B30,2013-03-05 16:30:00,
2013-03-05 09:35:00,45.7,21.6,29.53,North,-999,0.0,0.0,38,0.00,,,0.00,LWC V1.12 B30,2013-03-05 16:35:00,
2013-03-05 09:40:00,45.8,21.7,29.53,North,-999,0.0,0.0,38,0.00,,,0.00,LWC V1.12 B30,2013-03-05 16:40:00,
2013-03-05 09:45:00,45.9,21.7,29.53,North,-999,0.0,0.0,38,0.00,,,0.00,LWC V1.12 B30,2013-03-05 16:45:00,
2013-03-05 09:50:00,46.2,22.0,29.53,North,-999,0.0,0.0,38,0.00,,,0.00,LWC V1.12 B30,2013-03-05 16:50:00,
2013-03-05 09:55:00,46.3,22.1,29.53,North,-999,0.0,0.0,38,0.00,,,0.00,LWC V1.12 B30,2013-03-05 16:55:00,
2013-03-05 10:00:00,46.4,21.6,29.53,North,-999,0.0,0.0,37,0.00,,,0.00,LWC V1.12 B30,2013-03-05 17:00:00,
2013-03-05 10:05:00,46.5,21.6,29.53,North,-999,0.0,0.0,37,0.00,,,0.00,LWC V1.12 B30,2013-03-05 17:05:00,
2013-03-05 10:10:00,46.6,21.7,29.53,North,-999,0.0,0.0,37,0.00,,,0.00,LWC V1.12 B30,2013-03-05 17:10:00,
2013-03-05 10:15:00,46.6,21.1,29.53,North,-999,0.0,0.0,36,0.00,,,0.00,LWC V1.12 B30,2013-03-05 17:15:00,
2013-03-05 10:20:00,46.7,21.2,29.53,North,-999,0.0,0.0,36,0.00,,,0.00,LWC V1.12 B30,2013-03-05 17:20:00,
2013-03-05 10:25:00,46.9,21.4,29.53,North,-999,0.0,0.0,36,0.00,,,0.00,LWC V1.12 B30,2013-03-05 17:25:00,
2013-03-05 10:30:00,47.0,21.4,29.53,North,-999,0.0,0.0,36,0.00,,,0.00,LWC V1.12 B30,2013-03-05 17:30:00,
2013-03-05 10:35:00,47.2,21.0,29.53,North,-999,0.0,0.0,35,0.00,,,0.00,LWC V1.12 B30,2013-03-05 17:35:00,
2013-03-05 10:40:00,47.2,21.0,29.53,North,-999,0.0,0.0,35,0.00,,,0.00,LWC V1.12 B30,2013-03-05 17:40:00,
2013-03-05 10:45:00,47.4,20.5,29.53,North,-999,0.0,0.0,34,0.00,,,0.00,LWC V1.12 B30,2013-03-05 17:45:00,
2013-03-05 10:50:00,47.5,19.8,29.53,North,-999,0.0,0.0,33,0.00,,,0.00,LWC V1.12 B30,2013-03-05 17:50:00,
2013-03-05 10:55:00,47.7,20.0,29.53,North,-999,0.0,0.0,33,0.00,,,0.00,LWC V1.12 B30,2013-03-05 17:55:00,
2013-03-05 11:00:00,47.9,20.2,29.53,North,-999,0.0,0.0,33,0.00,,,0.00,LWC V1.12 B30,2013-03-05 18:00:00,
2013-03-05 11:05:00,48.3,20.5,29.53,North,-999,0.0,0.0,33,0.00,,,0.00,LWC V1.12 B30,2013-03-05 18:05:00,
2013-03-05 11:10:00,48.4,19.9,29.53,North,-999,0.0,0.0,32,0.00,,,0.00,LWC V1.12 B30,2013-03-05 18:10:00,
2013-03-05 11:15:00,48.4,19.9,29.53,North,-999,0.0,0.0,32,0.00,,,0.00,LWC V1.12 B30,2013-03-05 18:15:00,
2013-03-05 11:20:00,48.6,20.1,29.53,North,-999,0.0,0.0,32,0.00,,,0.00,LWC V1.12 B30,2013-03-05 18:20:00,
2013-03-05 11:25:00,48.8,18.8,29.53,North,-999,0.0,0.0,30,0.00,,,0.00,LWC V1.12 B30,2013-03-05 18:25:00,
2013-03-05 11:30:00,48.9,18.8,29.53,North,-999,0.0,0.0,30,0.00,,,0.00,LWC V1.12 B30,2013-03-05 18:30:00,
2013-03-05 11:35:00,49.2,19.1,29.53,North,-999,0.0,0.0,30,0.00,,,0.00,LWC V1.12 B30,2013-03-05 18:35:00,
2013-03-05 11:40:00,49.3,18.4,29.53,North,-999,0.0,0.0,29,0.00,,,0.00,LWC V1.12 B30,2013-03-05 18:40:00,
2013-03-05 11:45:00,49.6,18.7,29.53,North,-999,0.0,0.0,29,0.00,,,0.00,LWC V1.12 B30,2013-03-05 18:45:00,
2013-03-05 11:50:00,49.9,18.9,29.53,North,-999,0.0,0.0,29,0.00,,,0.00,LWC V1.12 B30,2013-03-05 18:50:00,
2013-03-05 11:55:00,50.0,19.0,29.53,North,-999,0.0,0.0,29,0.00,,,0.00,LWC V1.12 B30,2013-03-05 18:55:00,
2013-03-05 12:00:00,50.3,19.3,29.53,North,-999,0.0,0.0,29,0.00,,,0.00,LWC V1.12 B30,2013-03-05 19:00:00,
2013-03-05 12:05:00,50.6,18.7,29.53,North,-999,0.0,0.0,28,0.00,,,0.00,LWC V1.12 B30,2013-03-05 19:05:00,
2013-03-05 12:10:00,50.9,19.0,29.53,North,-999,0.0,0.0,28,0.00,,,0.00,LWC V1.12 B30,2013-03-05 19:10:00,
2013-03-05 12:15:00,51.1,20.0,29.53,North,-999,0.0,0.0,29,0.00,,,0.00,LWC V1.12 B30,2013-03-05 19:15:00,
2013-03-05 12:20:00,51.2,19.2,29.53,North,-999,0.0,0.0,28,0.00,,,0.00,LWC V1.12 B30,2013-03-05 19:20:00,
2013-03-05 12:25:00,51.4,19.4,29.53,North,-999,0.0,0.0,28,0.00,,,0.00,LWC V1.12 B30,2013-03-05 19:25:00,
2013-03-05 12:30:00,51.5,19.5,29.53,North,-999,0.0,0.0,28,0.00,,,0.00,LWC V1.12 B30,2013-03-05 19:30:00,
2013-03-05 12:35:00,51.6,18.7,29.53,North,-999,0.0,0.0,27,0.00,,,0.00,LWC V1.12 B30,2013-03-05 19:35:00,
2013-03-05 12:40:00,51.7,19.7,29.53,North,-999,0.0,0.0,28,0.00,,,0.00,LWC V1.12 B30,2013-03-05 19:40:00,
2013-03-05 12:45:00,52.0,19.1,29.53,North,-999,0.0,0.0,27,0.00,,,0.00,LWC V1.12 B30,2013-03-05 19:45:00,
2013-03-05 12:50:00,52.4,19.4,29.53,North,-999,0.0,0.0,27,0.00,,,0.00,LWC V1.12 B30,2013-03-05 19:50:00,
2013-03-05 12:55:00,52.6,19.6,29.53,North,-999,0.0,0.0,27,0.00,,,0.00,LWC V1.12 B30,2013-03-05 19:55:00,
2013-03-05 13:00:00,52.7,18.8,29.53,North,-999,0.0,0.0,26,0.00,,,0.00,LWC V1.12 B30,2013-03-05 20:00:00,
2013-03-05 13:05:00,52.8,18.0,29.53,North,-999,0.0,0.0,25,0.00,,,0.00,LWC V1.12 B30,2013-03-05 20:05:00,
2013-03-05 13:10:00,52.8,18.0,29.53,North,-999,0.0,0.0,25,0.00,,,0.00,LWC V1.12 B30,2013-03-05 20:10:00,
2013-03-05 13:15:00,52.9,18.1,29.53,North,-999,0.0,0.0,25,0.00,,,0.00,LWC V1.12 B30,2013-03-05 20:15:00,
2013-03-05 13:20:00,53.2,17.4,29.53,North,-999,0.0,0.0,24,0.00,,,0.00,LWC V1.12 B30,2013-03-05 20:20:00,
2013-03-05 13:25:00,53.3,17.4,29.53,North,-999,0.0,0.0,24,0.00,,,0.00,LWC V1.12 B30,2013-03-05 20:25:00,
2013-03-05 13:30:00,53.4,17.5,29.53,North,-999,0.0,0.0,24,0.00,,,0.00,LWC V1.12 B30,2013-03-05 20:30:00,
2013-03-05 13:35:00,53.4,17.5,29.53,North,-999,0.0,0.0,24,0.00,,,0.00,LWC V1.12 B30,2013-03-05 20:35:00,
2013-03-05 13:40:00,53.5,17.6,29.53,North,-999,0.0,0.0,24,0.00,,,0.00,LWC V1.12 B30,2013-03-05 20:40:00,
2013-03-05 13:45:00,53.7,16.8,29.53,North,-999,0.0,0.0,23,0.00,,,0.00,LWC V1.12 B30,2013-03-05 20:45:00,
2013-03-05 13:50:00,54.0,16.0,29.53,North,-999,0.0,0.0,22,0.00,,,0.00,LWC V1.12 B30,2013-03-05 20:50:00,
2013-03-05 13:55:00,54.2,16.2,29.53,North,-999,0.0,0.0,22,0.00,,,0.00,LWC V1.12 B30,2013-03-05 20:55:00,
2013-03-05 14:00:00,54.4,16.4,29.53,North,-999,0.0,0.0,22,0.00,,,0.00,LWC V1.12 B30,2013-03-05 21:00:00,
2013-03-05 14:05:00,54.6,15.5,29.53,North,-999,0.0,0.0,21,0.00,,,0.00,LWC V1.12 B30,2013-03-05 21:05:00,
2013-03-05 14:10:00,54.8,15.6,29.53,North,-999,0.0,0.0,21,0.00,,,0.00,LWC V1.12 B30,2013-03-05 21:10:00,
2013-03-05 14:15:00,54.9,15.7,29.53,North,-999,0.0,0.0,21,0.00,,,0.00,LWC V1.12 B30,2013-03-05 21:15:00,
2013-03-05 14:20:00,54.9,15.7,29.53,North,-999,0.0,0.0,21,0.00,,,0.00,LWC V1.12 B30,2013-03-05 21:20:00,
2013-03-05 14:25:00,55.0,15.8,29.53,North,-999,0.0,0.0,21,0.00,,,0.00,LWC V1.12 B30,2013-03-05 21:25:00,
2013-03-05 14:30:00,55.2,16.0,29.53,North,-999,0.0,0.0,21,0.00,,,0.00,LWC V1.12 B30,2013-03-05 21:30:00,
2013-03-05 14:35:00,55.3,14.9,29.53,North,-999,0.0,0.0,20,0.00,,,0.00,LWC V1.12 B30,2013-03-05 21:35:00,
2013-03-05 14:40:00,55.4,15.0,29.53,North,-999,0.0,0.0,20,0.00,,,0.00,LWC V1.12 B30,2013-03-05 21:40:00,
2013-03-05 14:45:00,55.6,14.0,29.53,North,-999,0.0,0.0,19,0.00,,,0.00,LWC V1.12 B30,2013-03-05 21:45:00,
2013-03-05 14:50:00,55.6,15.2,29.53,North,-999,0.0,0.0,20,0.00,,,0.00,LWC V1.12 B30,2013-03-05 21:50:00,
2013-03-05 14:55:00,55.7,14.1,29.53,North,-999,0.0,0.0,19,0.00,,,0.00,LWC V1.12 B30,2013-03-05 21:55:00,
2013-03-05 15:00:00,56.0,14.3,29.53,North,-999,0.0,0.0,19,0.00,,,0.00,LWC V1.12 B30,2013-03-05 22:00:00,
2013-03-05 15:05:00,56.3,14.6,29.53,North,-999,0.0,0.0,19,0.00,,,0.00,LWC V1.12 B30,2013-03-05 22:05:00,
2013-03-05 15:10:00,56.4,14.7,29.53,North,-999,0.0,0.0,19,0.00,,,0.00,LWC V1.12 B30,2013-03-05 22:10:00,
2013-03-05 15:15:00,56.5,14.8,29.53,North,-999,0.0,0.0,19,0.00,,,0.00,LWC V1.12 B30,2013-03-05 22:15:00,
2013-03-05 15:20:00,56.7,13.7,29.53,North,-999,0.0,0.0,18,0.00,,,0.00,LWC V1.12 B30,2013-03-05 22:20:00,
2013-03-05 15:25:00,56.9,15.1,29.53,North,-999,0.0,0.0,19,0.00,,,0.00,LWC V1.12 B30,2013-03-05 22:25:00,
2013-03-05 15:30:00,57.0,15.2,29.53,North,-999,0.0,0.0,19,0.00,,,0.00,LWC V1.12 B30,2013-03-05 22:30:00,
2013-03-05 15:35:00,57.2,15.3,29.53,North,-999,0.0,0.0,19,0.00,,,0.00,LWC V1.12 B30,2013-03-05 22:35:00,
2013-03-05 15:40:00,57.4,15.5,29.53,North,-999,0.0,0.0,19,0.00,,,0.00,LWC V1.12 B30,2013-03-05 22:40:00,
2013-03-05 15:45:00,57.4,15.5,29.53,North,-999,0.0,0.0,19,0.00,,,0.00,LWC V1.12 B30,2013-03-05 22:45:00,
2013-03-05 15:50:00,57.3,15.4,29.53,North,-999,0.0,0.0,19,0.00,,,0.00,LWC V1.12 B30,2013-03-05 22:50:00,
2013-03-05 15:55:00,57.3,16.6,29.53,North,-999,0.0,0.0,20,0.00,,,0.00,LWC V1.12 B30,2013-03-05 22:55:00,
2013-03-05 16:00:00,57.2,16.5,29.53,North,-999,0.0,0.0,20,0.00,,,0.00,LWC V1.12 B30,2013-03-05 23:00:00,
2013-03-05 16:05:00,57.3,15.4,29.53,North,-999,0.0,0.0,19,0.00,,,0.00,LWC V1.12 B30,2013-03-05 23:05:00,
2013-03-05 16:10:00,57.3,15.4,29.53,North,-999,0.0,0.0,19,0.00,,,0.00,LWC V1.12 B30,2013-03-05 23:10:00,
2013-03-05 16:15:00,57.3,15.4,29.53,North,-999,0.0,0.0,19,0.00,,,0.00,LWC V1.12 B30,2013-03-05 23:15:00,
2013-03-05 16:20:00,57.3,14.2,29.53,North,-999,0.0,0.0,18,0.00,,,0.00,LWC V1.12 B30,2013-03-05 23:20:00,
2013-03-05 16:25:00,57.2,14.1,29.53,North,-999,0.0,0.0,18,0.00,,,0.00,LWC V1.12 B30,2013-03-05 23:25:00,
2013-03-05 16:30:00,57.2,14.1,29.53,North,-999,0.0,0.0,18,0.00,,,0.00,LWC V1.12 B30,2013-03-05 23:30:00,
2013-03-05 16:35:00,57.3,12.9,29.53,North,-999,0.0,0.0,17,0.00,,,0.00,LWC V1.12 B30,2013-03-05 23:35:00,
2013-03-05 16:40:00,57.2,12.8,29.53,North,-999,0.0,0.0,17,0.00,,,0.00,LWC V1.12 B30,2013-03-05 23:40:00,
2013-03-05 16:45:00,57.2,14.1,29.53,North,-999,0.0,0.0,18,0.00,,,0.00,LWC V1.12 B30,2013-03-05 23:45:00,
2013-03-05 16:50:00,57.1,14.0,29.53,North,-999,0.0,0.0,18,0.00,,,0.00,LWC V1.12 B30,2013-03-05 23:50:00,
2013-03-05 16:55:00,57.1,15.2,29.53,North,-999,0.0,0.0,19,0.00,,,0.00,LWC V1.12 B30,2013-03-05 23:55:00,
2013-03-05 17:00:00,57.0,15.2,29.53,North,-999,0.0,0.0,19,0.00,,,0.00,LWC V1.12 B30,2013-03-06 00:00:00,
2013-03-05 17:05:00,57.0,15.2,29.53,North,-999,0.0,0.0,19,0.00,,,0.00,LWC V1.12 B30,2013-03-06 00:05:00,
2013-03-05 17:10:00,56.9,15.1,29.53,North,-999,0.0,0.0,19,0.00,,,0.00,LWC V1.12 B30,2013-03-06 00:10:00,
2013-03-05 17:15:00,56.8,15.0,29.53,North,-999,0.0,0.0,19,0.00,,,0.00,LWC V1.12 B30,2013-03-06 00:15:00,
2013-03-05 17:20:00,56.8,15.0,29.53,North,-999,0.0,0.0,19,0.00,,,0.00,LWC V1.12 B30,2013-03-06 00:20:00,
2013-03-05 17:25:00,56.6,14.8,29.53,North,-999,0.0,0.0,19,0.00,,,0.00,LWC V1.12 B30,2013-03-06 00:25:00,
2013-03-05 17:30:00,56.4,14.7,29.53,North,-999,0.0,0.0,19,0.00,,,0.00,LWC V1.12 B30,2013-03-06 00:30:00,
2013-03-05 17:35:00,56.2,14.5,29.53,North,-999,0.0,0.0,19,0.00,,,0.00,LWC V1.12 B30,2013-03-06 00:35:00,
2013-03-05 17:40:00,55.9,14.3,29.53,North,-999,0.0,0.0,19,0.00,,,0.00,LWC V1.12 B30,2013-03-06 00:40:00,
2013-03-05 17:45:00,55.7,14.1,29.53,North,-999,0.0,0.0,19,0.00,,,0.00,LWC V1.12 B30,2013-03-06 00:45:00,
2013-03-05 17:50:00,55.5,13.9,29.53,North,-999,0.0,0.0,19,0.00,,,0.00,LWC V1.12 B30,2013-03-06 00:50:00,
2013-03-05 17:55:00,55.3,13.8,29.53,North,-999,0.0,0.0,19,0.00,,,0.00,LWC V1.12 B30,2013-03-06 00:55:00,
2013-03-05 18:00:00,55.2,14.8,29.53,North,-999,0.0,0.0,20,0.00,,,0.00,LWC V1.12 B30,2013-03-06 01:00:00,
2013-03-05 18:05:00,54.9,14.6,29.53,North,-999,0.0,0.0,20,0.00,,,0.00,LWC V1.12 B30,2013-03-06 01:05:00,
2013-03-05 18:10:00,54.7,14.4,29.53,North,-999,0.0,0.0,20,0.00,,,0.00,LWC V1.12 B30,2013-03-06 01:10:00,
2013-03-05 18:15:00,54.6,15.5,29.53,North,-999,0.0,0.0,21,0.00,,,0.00,LWC V1.12 B30,2013-03-06 01:15:00,
2013-03-05 18:20:00,54.3,15.2,29.53,North,-999,0.0,0.0,21,0.00,,,0.00,LWC V1.12 B30,2013-03-06 01:20:00,
2013-03-05 18:25:00,54.3,15.2,29.53,North,-999,0.0,0.0,21,0.00,,,0.00,LWC V1.12 B30,2013-03-06 01:25:00,
2013-03-05 18:30:00,54.2,15.1,29.53,North,-999,0.0,0.0,21,0.00,,,0.00,LWC V1.12 B30,2013-03-06 01:30:00,
2013-03-05 18:35:00,54.1,15.0,29.53,North,-999,0.0,0.0,21,0.00,,,0.00,LWC V1.12 B30,2013-03-06 01:35:00,
2013-03-05 18:40:00,54.0,16.0,29.53,North,-999,0.0,0.0,22,0.00,,,0.00,LWC V1.12 B30,2013-03-06 01:40:00,
2013-03-05 18:45:00,53.8,15.9,29.53,North,-999,0.0,0.0,22,0.00,,,0.00,LWC V1.12 B30,2013-03-06 01:45:00,
2013-03-05 18:50:00,53.6,16.7,29.53,North,-999,0.0,0.0,23,0.00,,,0.00,LWC V1.12 B30,2013-03-06 01:50:00,
2013-03-05 18:55:00,53.5,16.6,29.53,North,-999,0.0,0.0,23,0.00,,,0.00,LWC V1.12 B30,2013-03-06 01:55:00,
2013-03-05 19:00:00,53.4,16.5,29.53,North,-999,0.0,0.0,23,0.00,,,0.00,LWC V1.12 B30,2013-03-06 02:00:00,
2013-03-05 19:05:00,53.4,16.5,29.53,North,-999,0.0,0.0,23,0.00,,,0.00,LWC V1.12 B30,2013-03-06 02:05:00,
2013-03-05 19:10:00,53.3,16.5,29.53,North,-999,0.0,0.0,23,0.00,,,0.00,LWC V1.12 B30,2013-03-06 02:10:00,
2013-03-05 19:15:00,53.3,16.5,29.53,North,-999,0.0,0.0,23,0.00,,,0.00,LWC V1.12 B30,2013-03-06 02:15:00,
2013-03-05 19:20:00,53.4,16.5,29.53,North,-999,0.0,0.0,23,0.00,,,0.00,LWC V1.12 B30,2013-03-06 02:20:00,
2013-03-05 19:25:00,53.3,16.5,29.53,North,-999,0.0,0.0,23,0.00,,,0.00,LWC V1.12 B30,2013-03-06 02:25:00,
2013-03-05 19:30:00,53.2,17.4,29.53,North,-999,0.0,0.0,24,0.00,,,0.00,LWC V1.12 B30,2013-03-06 02:30:00,
2013-03-05 19:35:00,53.1,17.3,29.53,North,-999,0.0,0.0,24,0.00,,,0.00,LWC V1.12 B30,2013-03-06 02:35:00,
2013-03-05 19:40:00,53.0,17.2,29.53,North,-999,0.0,0.0,24,0.00,,,0.00,LWC V1.12 B30,2013-03-06 02:40:00,
2013-03-05 19:45:00,52.9,17.1,29.53,North,-999,0.0,0.0,24,0.00,,,0.00,LWC V1.12 B30,2013-03-06 02:45:00,
2013-03-05 19:50:00,52.7,16.9,29.53,North,-999,0.0,0.0,24,0.00,,,0.00,LWC V1.12 B30,2013-03-06 02:50:00,
2013-03-05 19:55:00,52.6,16.9,29.53,North,-999,0.0,0.0,24,0.00,,,0.00,LWC V1.12 B30,2013-03-06 02:55:00,
2013-03-05 20:00:00,52.4,16.7,29.53,North,-999,0.0,0.0,24,0.00,,,0.00,LWC V1.12 B30,2013-03-06 03:00:00,
2013-03-05 20:05:00,52.3,17.5,29.53,North,-999,0.0,0.0,25,0.00,,,0.00,LWC V1.12 B30,2013-03-06 03:05:00,
2013-03-05 20:10:00,52.2,16.5,29.53,North,-999,0.0,0.0,24,0.00,,,0.00,LWC V1.12 B30,2013-03-06 03:10:00,
2013-03-05 20:15:00,52.0,17.3,29.53,North,-999,0.0,0.0,25,0.00,,,0.00,LWC V1.12 B30,2013-03-06 03:15:00,
2013-03-05 20:20:00,52.0,17.3,29.53,North,-999,0.0,0.0,25,0.00,,,0.00,LWC V1.12 B30,2013-03-06 03:20:00,
2013-03-05 20:25:00,52.0,17.3,29.53,North,-999,0.0,0.0,25,0.00,,,0.00,LWC V1.12 B30,2013-03-06 03:25:00,
2013-03-05 20:30:00,51.9,17.2,29.53,North,-999,0.0,0.0,25,0.00,,,0.00,LWC V1.12 B30,2013-03-06 03:30:00,
2013-03-05 20:35:00,51.9,17.2,29.53,North,-999,0.0,0.0,25,0.00,,,0.00,LWC V1.12 B30,2013-03-06 03:35:00,
2013-03-05 20:40:00,51.9,17.2,29.53,North,-999,0.0,0.0,25,0.00,,,0.00,LWC V1.12 B30,2013-03-06 03:40:00,
2013-03-05 20:45:00,52.0,17.3,29.53,North,-999,0.0,0.0,25,0.00,,,0.00,LWC V1.12 B30,2013-03-06 03:45:00,
2013-03-05 20:50:00,52.0,17.3,29.53,North,-999,0.0,0.0,25,0.00,,,0.00,LWC V1.12 B30,2013-03-06 03:50:00,
2013-03-05 20:55:00,52.0,18.2,29.53,North,-999,0.0,0.0,26,0.00,,,0.00,LWC V1.12 B30,2013-03-06 03:55:00,
2013-03-05 21:00:00,52.0,18.2,29.53,North,-999,0.0,0.0,26,0.00,,,0.00,LWC V1.12 B30,2013-03-06 04:00:00,
2013-03-05 21:05:00,51.9,17.2,29.53,North,-999,0.0,0.0,25,0.00,,,0.00,LWC V1.12 B30,2013-03-06 04:05:00,
2013-03-05 21:10:00,51.9,19.0,29.53,North,-999,0.0,0.0,27,0.00,,,0.00,LWC V1.12 B30,2013-03-06 04:10:00,
2013-03-05 21:15:00,51.8,18.9,29.53,North,-999,0.0,0.0,27,0.00,,,0.00,LWC V1.12 B30,2013-03-06 04:15:00,
2013-03-05 21:20:00,51.6,18.7,29.53,North,-999,0.0,0.0,27,0.00,,,0.00,LWC V1.12 B30,2013-03-06 04:20:00,
2013-03-05 21:25:00,51.6,18.7,29.53,North,-999,0.0,0.0,27,0.00,,,0.00,LWC V1.12 B30,2013-03-06 04:25:00,
2013-03-05 21:30:00,51.5,18.6,29.53,North,-999,0.0,0.0,27,0.00,,,0.00,LWC V1.12 B30,2013-03-06 04:30:00,
2013-03-05 21:35:00,51.5,18.6,29.53,North,-999,0.0,0.0,27,0.00,,,0.00,LWC V1.12 B30,2013-03-06 04:35:00,
2013-03-05 21:40:00,51.4,18.6,29.53,North,-999,0.0,0.0,27,0.00,,,0.00,LWC V1.12 B30,2013-03-06 04:40:00,
2013-03-05 21:45:00,51.3,18.5,29.53,North,-999,0.0,0.0,27,0.00,,,0.00,LWC V1.12 B30,2013-03-06 04:45:00,
2013-03-05 21:50:00,51.1,18.3,29.53,North,-999,0.0,0.0,27,0.00,,,0.00,LWC V1.12 B30,2013-03-06 04:50:00,
2013-03-05 21:55:00,51.0,18.2,29.53,North,-999,0.0,0.0,27,0.00,,,0.00,LWC V1.12 B30,2013-03-06 04:55:00,
2013-03-05 22:00:00,50.9,18.1,29.53,North,-999,0.0,0.0,27,0.00,,,0.00,LWC V1.12 B30,2013-03-06 05:00:00,
2013-03-05 22:01:00,50.9,18.1,29.53,North,-999,0.0,0.0,27,0.00,,,0.00,LWC V1.12 B30,2013-03-06 05:01:00,
2013-03-05 22:03:00,50.8,18.0,29.53,North,-999,0.0,0.0,27,0.00,,,0.00,LWC V1.12 B30,2013-03-06 05:03:00,
2013-03-05 22:08:00,50.8,18.0,29.53,North,-999,0.0,0.0,27,0.00,,,0.00,LWC V1.12 B30,2013-03-06 05:08:00,
2013-03-05 22:13:00,50.6,18.7,29.53,North,-999,0.0,0.0,28,0.00,,,0.00,LWC V1.12 B30,2013-03-06 05:13:00,
2013-03-05 22:18:00,50.6,17.9,29.53,North,-999,0.0,0.0,27,0.00,,,0.00,LWC V1.12 B30,2013-03-06 05:18:00,
2013-03-05 22:23:00,50.4,17.7,29.53,North,-999,0.0,0.0,27,0.00,,,0.00,LWC V1.12 B30,2013-03-06 05:23:00,
2013-03-05 22:28:00,50.4,17.7,29.53,North,-999,0.0,0.0,27,0.00,,,0.00,LWC V1.12 B30,2013-03-06 05:28:00,
2013-03-05 22:33:00,50.3,18.5,29.53,North,-999,0.0,0.0,28,0.00,,,0.00,LWC V1.12 B30,2013-03-06 05:33:00,
2013-03-05 22:38:00,50.3,18.5,29.53,North,-999,0.0,0.0,28,0.00,,,0.00,LWC V1.12 B30,2013-03-06 05:38:00,
2013-03-05 22:43:00,50.2,18.4,29.53,North,-999,0.0,0.0,28,0.00,,,0.00,LWC V1.12 B30,2013-03-06 05:43:00,
2013-03-05 22:48:00,50.1,18.3,29.53,North,-999,0.0,0.0,28,0.00,,,0.00,LWC V1.12 B30,2013-03-06 05:48:00,
2013-03-05 22:53:00,49.9,18.1,29.53,North,-999,0.0,0.0,28,0.00,,,0.00,LWC V1.12 B30,2013-03-06 05:53:00,
2013-03-05 22:58:00,49.8,18.8,29.53,North,-999,0.0,0.0,29,0.00,,,0.00,LWC V1.12 B30,2013-03-06 05:58:00,
2013-03-05 23:03:00,49.8,18.8,29.53,North,-999,0.0,0.0,29,0.00,,,0.00,LWC V1.12 B30,2013-03-06 06:03:00,
2013-03-05 23:08:00,49.6,18.7,29.53,North,-999,0.0,0.0,29,0.00,,,0.00,LWC V1.12 B30,2013-03-06 06:08:00,
2013-03-05 23:13:00,49.5,19.4,29.53,North,-999,0.0,0.0,30,0.00,,,0.00,LWC V1.12 B30,2013-03-06 06:13:00,
2013-03-05 23:18:00,49.4,19.3,29.53,North,-999,0.0,0.0,30,0.00,,,0.00,LWC V1.12 B30,2013-03-06 06:18:00,
2013-03-05 23:23:00,49.3,19.2,29.53,North,-999,0.0,0.0,30,0.00,,,0.00,LWC V1.12 B30,2013-03-06 06:23:00,
2013-03-05 23:28:00,49.1,19.0,29.53,North,-999,0.0,0.0,30,0.00,,,0.00,LWC V1.12 B30,2013-03-06 06:28:00,
2013-03-05 23:33:00,49.2,19.1,29.53,North,-999,0.0,0.0,30,0.00,,,0.00,LWC V1.12 B30,2013-03-06 06:33:00,
2013-03-05 23:38:00,49.1,19.0,29.53,North,-999,0.0,0.0,30,0.00,,,0.00,LWC V1.12 B30,2013-03-06 06:38:00,
2013-03-05 23:43:00,49.0,19.7,29.53,North,-999,0.0,0.0,31,0.00,,,0.00,LWC V1.12 B30,2013-03-06 06:43:00,
2013-03-05 23:48:00,48.9,19.6,29.53,North,-999,0.0,0.0,31,0.00,,,0.00,LWC V1.12 B30,2013-03-06 06:48:00,
2013-03-05 23:53:00,48.9,19.6,29.53,North,-999,0.0,0.0,31,0.00,,,0.00,LWC V1.12 B30,2013-03-06 06:53:00,
2013-03-05 23:58:00,48.9,19.6,29.53,North,-999,0.0,0.0,31,0.00,,,0.00,LWC V1.12 B30,2013-03-06 06:58:00,